| time (UTC) | temp F | wind direction | speed knots | gust knots | rain 1hr in | rain 24hr in | rain mn in | humidity % | barometer mb |
| 20260507233432 | 45 | 155 | 0.9 | 2.6 | 0.00 | 0.00 | 0.00 | 48 | 1017.2 |
| 20260507232931 | 45 | 157 | 1.7 | 2.6 | 0.00 | 0.00 | 0.00 | 48 | 1017.4 |
| 20260507232427 | 45 | 169 | 1.7 | 2.6 | 0.00 | 0.00 | 0.00 | 48 | 1017.1 |
| 20260507231924 | 46 | 150 | 0.0 | 2.6 | 0.00 | 0.00 | 0.00 | 48 | 1017.2 |
| 20260507231420 | 46 | 135 | 1.7 | 1.7 | 0.00 | 0.00 | 0.00 | 47 | 1017.3 |
| 20260507230918 | 46 | 159 | 0.9 | 2.6 | 0.00 | 0.00 | 0.00 | 47 | 1017.3 |
| 20260507230415 | 46 | 160 | 1.7 | 2.6 | 0.00 | 0.00 | 0.00 | 47 | 1017.4 |
| 20260507225914 | 46 | 152 | 1.7 | 1.7 | 0.00 | 0.00 | 0.00 | 47 | 1017.1 |
| 20260507225411 | 46 | 184 | 0.0 | 1.7 | 0.00 | 0.00 | 0.00 | 47 | 1017.3 |
| 20260507224907 | 47 | 166 | 1.7 | 2.6 | 0.00 | 0.00 | 0.00 | 47 | 1017.1 |
| 20260507224403 | 47 | 172 | 1.7 | 2.6 | 0.00 | 0.00 | 0.00 | 47 | 1017.2 |
| 20260507223900 | 47 | 163 | 1.7 | 2.6 | 0.00 | 0.00 | 0.00 | 47 | 1017.1 |
| 20260507223357 | 47 | 150 | 0.0 | 1.7 | 0.00 | 0.00 | 0.00 | 47 | 1017.1 |
| 20260507222854 | 48 | 125 | 0.9 | 2.6 | 0.00 | 0.00 | 0.00 | 47 | 1017.1 |
| 20260507222350 | 48 | 163 | 0.0 | 2.6 | 0.00 | 0.00 | 0.00 | 47 | 1017.4 |
| 20260507221847 | 48 | 150 | 0.9 | 1.7 | 0.00 | 0.00 | 0.00 | 46 | 1016.9 |
| 20260507221343 | 48 | 155 | 0.9 | 1.7 | 0.00 | 0.00 | 0.00 | 46 | 1017.0 |
| 20260507220839 | 49 | 181 | 1.7 | 2.6 | 0.00 | 0.00 | 0.00 | 46 | 1016.9 |
| 20260507220338 | 49 | 180 | 1.7 | 2.6 | 0.00 | 0.00 | 0.00 | 46 | 1017.2 |
| 20260507215833 | 49 | 175 | 1.7 | 2.6 | 0.00 | 0.00 | 0.00 | 46 | 1017.0 |
| 20260507215330 | 49 | 176 | 1.7 | 2.6 | 0.00 | 0.00 | 0.00 | 46 | 1017.1 |
| 20260507214827 | 50 | 176 | 1.7 | 2.6 | 0.00 | 0.00 | 0.00 | 46 | 1016.9 |
| 20260507214325 | 50 | 172 | 1.7 | 2.6 | 0.00 | 0.00 | 0.00 | 46 | 1016.9 |
| 20260507213820 | 50 | 172 | 1.7 | 2.6 | 0.00 | 0.00 | 0.00 | 46 | 1017.0 |
| 20260507213318 | 50 | 156 | 1.7 | 2.6 | 0.00 | 0.00 | 0.00 | 46 | 1016.9 |
| 20260507212814 | 50 | 146 | 0.9 | 2.6 | 0.00 | 0.00 | 0.00 | 45 | 1016.9 |
| 20260507212310 | 51 | 202 | 0.0 | 0.9 | 0.00 | 0.00 | 0.00 | 45 | 1016.9 |
| 20260507211807 | 51 | 168 | 1.7 | 2.6 | 0.00 | 0.00 | 0.00 | 45 | 1016.6 |
| 20260507211304 | 51 | 180 | 2.6 | 2.6 | 0.00 | 0.00 | 0.00 | 45 | 1016.8 |
| 20260507210801 | 51 | 169 | 0.9 | 1.7 | 0.00 | 0.00 | 0.00 | 45 | 1016.7 |
| 20260507210257 | 52 | 159 | 0.0 | 2.6 | 0.00 | 0.00 | 0.00 | 45 | 1016.5 |
| 20260507205753 | 52 | 165 | 0.0 | 1.7 | 0.00 | 0.00 | 0.00 | 45 | 1016.8 |
| 20260507205251 | 52 | 161 | 1.7 | 2.6 | 0.00 | 0.00 | 0.00 | 44 | 1016.4 |
| 20260507204747 | 52 | 191 | 1.7 | 2.6 | 0.00 | 0.00 | 0.00 | 44 | 1016.5 |
| 20260507204245 | 53 | 151 | 1.7 | 2.6 | 0.00 | 0.00 | 0.00 | 44 | 1016.5 |
| 20260507203742 | 53 | 149 | 1.7 | 2.6 | 0.00 | 0.00 | 0.00 | 44 | 1016.4 |
| 20260507203239 | 53 | 153 | 1.7 | 3.5 | 0.00 | 0.00 | 0.00 | 44 | 1016.5 |
| 20260507202736 | 54 | 151 | 1.7 | 2.6 | 0.00 | 0.00 | 0.00 | 44 | 1016.3 |
| 20260507202232 | 54 | 131 | 0.0 | 1.7 | 0.00 | 0.00 | 0.00 | 44 | 1016.4 |
| 20260507201727 | 54 | 103 | 0.0 | 1.7 | 0.00 | 0.00 | 0.00 | 44 | 1016.2 |
| 20260507201224 | 54 | 175 | 0.9 | 2.6 | 0.00 | 0.00 | 0.00 | 44 | 1016.4 |
| 20260507200720 | 55 | 143 | 0.9 | 2.6 | 0.00 | 0.00 | 0.00 | 43 | 1016.2 |
| 20260507200216 | 55 | 151 | 0.9 | 2.6 | 0.00 | 0.00 | 0.00 | 43 | 1016.2 |
| 20260507195712 | 55 | 128 | 1.7 | 1.7 | 0.00 | 0.00 | 0.00 | 43 | 1016.0 |
| 20260507195204 | 55 | 140 | 1.7 | 2.6 | 0.00 | 0.00 | 0.00 | 43 | 1015.8 |
| 20260507194701 | 56 | 68 | 0.0 | 1.7 | 0.00 | 0.00 | 0.00 | 43 | 1015.9 |
| 20260507194156 | 56 | 224 | 0.0 | 1.7 | 0.00 | 0.00 | 0.00 | 42 | 1015.9 |
| 20260507193653 | 56 | 144 | 0.9 | 1.7 | 0.00 | 0.00 | 0.00 | 42 | 1016.0 |
| 20260507193151 | 57 | 137 | 0.9 | 1.7 | 0.00 | 0.00 | 0.00 | 42 | 1015.6 |
| 20260507192646 | 57 | 132 | 0.0 | 1.7 | 0.00 | 0.00 | 0.00 | 42 | 1015.6 |
| 20260507192144 | 57 | 116 | 0.9 | 1.7 | 0.00 | 0.00 | 0.00 | 42 | 1015.5 |
| 20260507191639 | 57 | 147 | 0.0 | 1.7 | 0.00 | 0.00 | 0.00 | 42 | 1015.6 |
| 20260507191136 | 58 | 168 | 0.9 | 0.9 | 0.00 | 0.00 | 0.00 | 42 | 1015.5 |
| 20260507190634 | 58 | 121 | 0.0 | 1.7 | 0.00 | 0.00 | 0.00 | 42 | 1015.5 |
| 20260507190133 | 58 | 148 | 1.7 | 2.6 | 0.00 | 0.00 | 0.00 | 42 | 1015.2 |
| 20260507185631 | 58 | 148 | 2.6 | 2.6 | 0.00 | 0.00 | 0.00 | 42 | 1015.2 |
| 20260507185127 | 59 | 159 | 1.7 | 2.6 | 0.00 | 0.00 | 0.00 | 41 | 1015.3 |
| 20260507184625 | 59 | 140 | 0.0 | 1.7 | 0.00 | 0.00 | 0.00 | 41 | 1015.0 |
| 20260507184123 | 59 | 124 | 0.0 | 1.7 | 0.00 | 0.00 | 0.00 | 41 | 1014.8 |
| 20260507183618 | 59 | 152 | 0.9 | 1.7 | 0.00 | 0.00 | 0.00 | 41 | 1015.0 |
| 20260507183116 | 59 | 112 | 0.0 | 2.6 | 0.00 | 0.00 | 0.00 | 41 | 1014.9 |
| 20260507182612 | 60 | 183 | 2.6 | 3.5 | 0.00 | 0.00 | 0.00 | 41 | 1014.9 |
| 20260507182108 | 60 | 168 | 0.9 | 2.6 | 0.00 | 0.00 | 0.00 | 42 | 1014.8 |
| 20260507181605 | 60 | 169 | 0.0 | 1.7 | 0.00 | 0.00 | 0.00 | 42 | 1014.9 |
| 20260507181101 | 60 | 207 | 0.9 | 4.3 | 0.00 | 0.00 | 0.00 | 41 | 1014.9 |
| 20260507180559 | 60 | 175 | 0.9 | 2.6 | 0.00 | 0.00 | 0.00 | 42 | 1014.5 |
| 20260507180055 | 60 | 133 | 2.6 | 2.6 | 0.00 | 0.00 | 0.00 | 41 | 1014.7 |
| 20260507175551 | 61 | 140 | 0.9 | 4.3 | 0.00 | 0.00 | 0.00 | 42 | 1014.6 |
| 20260507175048 | 61 | 196 | 0.9 | 1.7 | 0.00 | 0.00 | 0.00 | 42 | 1014.6 |
| 20260507174545 | 61 | 157 | 0.0 | 1.7 | 0.00 | 0.00 | 0.00 | 42 | 1014.6 |
| 20260507174043 | 61 | 247 | 1.7 | 3.5 | 0.00 | 0.00 | 0.00 | 42 | 1014.4 |
| 20260507173540 | 61 | 211 | 0.0 | 4.3 | 0.00 | 0.00 | 0.00 | 42 | 1014.4 |
| 20260507173037 | 61 | 259 | 1.7 | 4.3 | 0.00 | 0.00 | 0.00 | 41 | 1014.3 |
| 20260507172533 | 61 | 255 | 0.0 | 4.3 | 0.00 | 0.00 | 0.00 | 41 | 1014.4 |
| 20260507172030 | 62 | 261 | 3.5 | 6.1 | 0.00 | 0.00 | 0.00 | 41 | 1014.5 |
| 20260507171525 | 62 | 328 | 0.9 | 4.3 | 0.00 | 0.00 | 0.00 | 40 | 1014.7 |
| 20260507171023 | 62 | 235 | 0.0 | 5.2 | 0.00 | 0.00 | 0.00 | 40 | 1014.6 |
| 20260507170519 | 62 | 190 | 0.9 | 4.3 | 0.00 | 0.00 | 0.00 | 40 | 1014.2 |
| 20260507170016 | 62 | 201 | 3.5 | 6.1 | 0.00 | 0.00 | 0.00 | 40 | 1014.5 |
| 20260507165512 | 62 | 255 | 2.6 | 4.3 | 0.00 | 0.00 | 0.00 | 40 | 1014.3 |
| 20260507165009 | 62 | 195 | 3.5 | 7.0 | 0.00 | 0.00 | 0.00 | 40 | 1014.4 |
| 20260507164505 | 62 | 191 | 1.7 | 6.1 | 0.00 | 0.00 | 0.00 | 40 | 1014.3 |
| 20260507164002 | 62 | 163 | 0.0 | 3.5 | 0.00 | 0.00 | 0.00 | 40 | 1014.3 |
| 20260507163459 | 62 | 248 | 2.6 | 6.1 | 0.00 | 0.00 | 0.00 | 40 | 1014.3 |
| 20260507162956 | 62 | 209 | 1.7 | 6.1 | 0.00 | 0.00 | 0.00 | 40 | 1014.5 |
| 20260507162451 | 62 | 276 | 1.7 | 6.1 | 0.00 | 0.00 | 0.00 | 40 | 1014.4 |
| 20260507161949 | 62 | 289 | 1.7 | 4.3 | 0.00 | 0.00 | 0.00 | 40 | 1014.0 |
| 20260507161445 | 62 | 241 | 1.7 | 2.6 | 0.00 | 0.00 | 0.00 | 40 | 1014.2 |
| 20260507160942 | 61 | 283 | 1.7 | 4.3 | 0.00 | 0.00 | 0.00 | 40 | 1014.0 |
| 20260507160438 | 61 | 221 | 1.7 | 6.1 | 0.00 | 0.00 | 0.00 | 40 | 1014.1 |
| 20260507155933 | 61 | 208 | 2.6 | 5.2 | 0.00 | 0.00 | 0.00 | 40 | 1013.9 |
| 20260507155430 | 61 | 212 | 0.0 | 3.5 | 0.00 | 0.00 | 0.00 | 40 | 1014.0 |
| 20260507154927 | 61 | 267 | 2.6 | 8.7 | 0.00 | 0.00 | 0.00 | 39 | 1014.0 |
| 20260507154423 | 61 | 246 | 0.9 | 3.5 | 0.00 | 0.00 | 0.00 | 40 | 1014.0 |
| 20260507153921 | 61 | 199 | 3.5 | 7.8 | 0.00 | 0.00 | 0.00 | 39 | 1014.1 |
| 20260507153417 | 61 | 116 | 0.0 | 3.5 | 0.00 | 0.00 | 0.00 | 39 | 1014.0 |
| 20260507152914 | 61 | 310 | 4.3 | 5.2 | 0.00 | 0.00 | 0.00 | 39 | 1014.1 |
| 20260507152410 | 61 | 351 | 1.7 | 4.3 | 0.00 | 0.00 | 0.00 | 39 | 1014.0 |
| 20260507151906 | 61 | 286 | 3.5 | 6.1 | 0.00 | 0.00 | 0.00 | 39 | 1014.0 |
| 20260507151403 | 62 | 30 | 4.3 | 6.1 | 0.00 | 0.00 | 0.00 | 39 | 1013.9 |
| 20260507150900 | 62 | 28 | 2.6 | 5.2 | 0.00 | 0.00 | 0.00 | 41 | 1013.9 |
| 20260507150356 | 61 | 211 | 2.6 | 4.3 | 0.00 | 0.00 | 0.00 | 42 | 1013.9 |
| 20260507145853 | 61 | 274 | 2.6 | 7.0 | 0.00 | 0.00 | 0.00 | 42 | 1013.8 |
| 20260507145349 | 61 | 168 | 1.7 | 5.2 | 0.00 | 0.00 | 0.00 | 41 | 1014.0 |
| 20260507144846 | 61 | 333 | 0.9 | 4.3 | 0.00 | 0.00 | 0.00 | 42 | 1014.0 |
| 20260507144343 | 61 | 237 | 2.6 | 4.3 | 0.00 | 0.00 | 0.00 | 42 | 1013.7 |
| 20260507143840 | 61 | 285 | 3.5 | 4.3 | 0.00 | 0.00 | 0.00 | 42 | 1013.8 |
| 20260507143337 | 60 | 266 | 4.3 | 7.0 | 0.00 | 0.00 | 0.00 | 41 | 1013.9 |
| 20260507142833 | 60 | 259 | 4.3 | 4.3 | 0.00 | 0.00 | 0.00 | 41 | 1013.8 |
| 20260507142330 | 61 | 18 | 3.5 | 7.8 | 0.00 | 0.00 | 0.00 | 42 | 1013.8 |
| 20260507141827 | 60 | 196 | 0.9 | 4.3 | 0.00 | 0.00 | 0.00 | 42 | 1013.9 |
| 20260507141323 | 60 | 210 | 1.7 | 6.1 | 0.00 | 0.00 | 0.00 | 41 | 1014.0 |
| 20260507140820 | 60 | 309 | 1.7 | 5.2 | 0.00 | 0.00 | 0.00 | 42 | 1014.0 |
| 20260507140317 | 60 | 260 | 1.7 | 7.0 | 0.00 | 0.00 | 0.00 | 42 | 1014.0 |
| 20260507135815 | 59 | 257 | 0.9 | 5.2 | 0.00 | 0.00 | 0.00 | 42 | 1014.1 |
| 20260507135311 | 59 | 196 | 3.5 | 9.6 | 0.00 | 0.00 | 0.00 | 42 | 1013.6 |
| 20260507134808 | 59 | 174 | 3.5 | 5.2 | 0.00 | 0.00 | 0.00 | 43 | 1013.9 |
| 20260507134304 | 59 | 312 | 4.3 | 7.8 | 0.00 | 0.00 | 0.00 | 42 | 1013.8 |
| 20260507133800 | 58 | 330 | 5.2 | 7.8 | 0.00 | 0.00 | 0.00 | 42 | 1013.9 |
| 20260507133256 | 58 | 190 | 3.5 | 6.1 | 0.00 | 0.00 | 0.00 | 42 | 1013.9 |
| 20260507132754 | 58 | 186 | 3.5 | 7.0 | 0.00 | 0.00 | 0.00 | 43 | 1013.8 |
| 20260507132250 | 57 | 233 | 0.9 | 7.0 | 0.00 | 0.00 | 0.00 | 43 | 1014.0 |
| 20260507131748 | 57 | 153 | 1.7 | 3.5 | 0.00 | 0.00 | 0.00 | 42 | 1013.8 |
| 20260507131245 | 57 | 63 | 5.2 | 6.1 | 0.00 | 0.00 | 0.00 | 43 | 1013.7 |
| 20260507130741 | 57 | 189 | 3.5 | 6.1 | 0.00 | 0.00 | 0.00 | 44 | 1013.9 |
| 20260507130239 | 57 | 332 | 0.9 | 6.1 | 0.00 | 0.00 | 0.00 | 45 | 1014.0 |
| 20260507125738 | 57 | 325 | 1.7 | 5.2 | 0.00 | 0.00 | 0.00 | 45 | 1013.8 |
| 20260507125235 | 56 | 264 | 4.3 | 8.7 | 0.00 | 0.00 | 0.00 | 45 | 1013.7 |
| 20260507124732 | 56 | 299 | 3.5 | 7.0 | 0.00 | 0.00 | 0.00 | 45 | 1013.8 |
| 20260507124228 | 55 | 294 | 1.7 | 7.8 | 0.00 | 0.00 | 0.00 | 45 | 1013.8 |
| 20260507123727 | 55 | 305 | 3.5 | 7.8 | 0.00 | 0.00 | 0.00 | 46 | 1013.7 |
| 20260507123224 | 55 | 265 | 1.7 | 6.1 | 0.00 | 0.00 | 0.00 | 46 | 1013.7 |
| 20260507122719 | 55 | 219 | 1.7 | 4.3 | 0.00 | 0.00 | 0.00 | 46 | 1013.7 |
| 20260507122215 | 54 | 277 | 2.6 | 3.5 | 0.00 | 0.00 | 0.00 | 46 | 1013.5 |
| 20260507121711 | 54 | 209 | 2.6 | 4.3 | 0.00 | 0.00 | 0.00 | 45 | 1013.9 |
| 20260507121207 | 53 | 224 | 2.6 | 10.4 | 0.00 | 0.00 | 0.00 | 45 | 1013.7 |
| 20260507120703 | 53 | 299 | 1.7 | 6.1 | 0.00 | 0.00 | 0.00 | 45 | 1013.7 |
| 20260507120201 | 52 | 170 | 2.6 | 5.2 | 0.00 | 0.00 | 0.00 | 45 | 1013.7 |
| 20260507115656 | 52 | 213 | 4.3 | 8.7 | 0.00 | 0.00 | 0.00 | 44 | 1013.7 |
| 20260507115152 | 52 | 22 | 3.5 | 7.8 | 0.00 | 0.00 | 0.00 | 45 | 1013.6 |
| 20260507114648 | 51 | 39 | 1.7 | 7.0 | 0.00 | 0.00 | 0.00 | 45 | 1013.6 |
| 20260507114146 | 51 | 25 | 3.5 | 7.8 | 0.00 | 0.00 | 0.00 | 45 | 1013.6 |
| 20260507113643 | 51 | 334 | 1.7 | 6.1 | 0.00 | 0.00 | 0.00 | 45 | 1013.8 |
| 20260507113139 | 51 | 138 | 3.5 | 6.1 | 0.00 | 0.00 | 0.00 | 45 | 1013.6 |
| 20260507112637 | 51 | 29 | 6.1 | 13.9 | 0.00 | 0.00 | 0.00 | 46 | 1013.6 |
| 20260507112134 | 50 | 327 | 1.7 | 5.2 | 0.00 | 0.00 | 0.00 | 46 | 1013.6 |
| 20260507111631 | 50 | 35 | 3.5 | 6.1 | 0.00 | 0.00 | 0.00 | 45 | 1013.6 |
| 20260507111128 | 50 | 330 | 1.7 | 5.2 | 0.00 | 0.00 | 0.00 | 45 | 1013.6 |
| 20260507110624 | 50 | 50 | 1.7 | 5.2 | 0.00 | 0.00 | 0.00 | 45 | 1013.7 |
| 20260507110121 | 50 | 37 | 7.0 | 8.7 | 0.00 | 0.00 | 0.00 | 45 | 1013.5 |
| 20260507105618 | 49 | 13 | 4.3 | 13.9 | 0.00 | 0.00 | 0.00 | 46 | 1013.5 |
| 20260507105114 | 49 | 15 | 1.7 | 7.0 | 0.00 | 0.00 | 0.00 | 47 | 1013.4 |
| 20260507104612 | 49 | 67 | 2.6 | 4.3 | 0.00 | 0.00 | 0.00 | 47 | 1013.3 |
| 20260507104108 | 49 | 214 | 5.2 | 7.8 | 0.00 | 0.00 | 0.00 | 47 | 1013.4 |
| 20260507103604 | 49 | 69 | 2.6 | 7.0 | 0.00 | 0.00 | 0.00 | 47 | 1013.3 |
| 20260507103101 | 48 | 304 | 5.2 | 7.8 | 0.00 | 0.00 | 0.00 | 47 | 1013.6 |
| 20260507102557 | 48 | 8 | 3.5 | 6.1 | 0.00 | 0.00 | 0.00 | 47 | 1013.5 |
| 20260507102053 | 48 | 38 | 3.5 | 7.8 | 0.00 | 0.00 | 0.00 | 48 | 1013.4 |
| 20260507101549 | 48 | 100 | 7.0 | 8.7 | 0.00 | 0.00 | 0.00 | 48 | 1013.5 |
| 20260507101045 | 47 | 302 | 3.5 | 9.6 | 0.00 | 0.00 | 0.00 | 48 | 1013.2 |
| 20260507100543 | 47 | 28 | 5.2 | 7.8 | 0.00 | 0.00 | 0.00 | 48 | 1013.3 |
| 20260507100041 | 47 | 100 | 1.7 | 3.5 | 0.00 | 0.00 | 0.00 | 48 | 1013.3 |
| 20260507095538 | 47 | 12 | 6.1 | 7.0 | 0.00 | 0.00 | 0.00 | 49 | 1013.4 |
| 20260507095035 | 46 | 330 | 4.3 | 7.8 | 0.00 | 0.00 | 0.00 | 49 | 1013.3 |
| 20260507094531 | 46 | 55 | 3.5 | 10.4 | 0.00 | 0.00 | 0.00 | 50 | 1013.0 |
| 20260507094028 | 46 | 324 | 5.2 | 7.8 | 0.00 | 0.00 | 0.00 | 50 | 1013.4 |
| 20260507093526 | 46 | 43 | 0.0 | 6.1 | 0.00 | 0.00 | 0.00 | 50 | 1013.4 |
| 20260507093024 | 46 | 266 | 2.6 | 6.1 | 0.00 | 0.00 | 0.00 | 51 | 1013.5 |
| 20260507092520 | 46 | 303 | 2.6 | 3.5 | 0.00 | 0.00 | 0.00 | 51 | 1013.4 |
| 20260507092017 | 45 | 292 | 3.5 | 4.3 | 0.00 | 0.00 | 0.00 | 51 | 1013.5 |
| 20260507091514 | 45 | 327 | 3.5 | 7.0 | 0.00 | 0.00 | 0.00 | 51 | 1013.5 |
| 20260507091010 | 45 | 32 | 3.5 | 9.6 | 0.00 | 0.00 | 0.00 | 52 | 1013.3 |
| 20260507090506 | 45 | 294 | 1.7 | 4.3 | 0.00 | 0.00 | 0.00 | 52 | 1013.5 |
| 20260507090003 | 44 | 314 | 3.5 | 7.0 | 0.00 | 0.00 | 0.00 | 52 | 1013.5 |
| 20260507085500 | 44 | 327 | 3.5 | 8.7 | 0.00 | 0.00 | 0.00 | 52 | 1013.2 |
| 20260507084956 | 44 | 32 | 3.5 | 7.8 | 0.00 | 0.00 | 0.00 | 52 | 1013.4 |
| 20260507084453 | 44 | 312 | 5.2 | 5.2 | 0.00 | 0.00 | 0.00 | 53 | 1013.4 |
| 20260507083950 | 44 | 315 | 3.5 | 6.1 | 0.00 | 0.00 | 0.00 | 53 | 1013.2 |
| 20260507083446 | 43 | 338 | 2.6 | 6.1 | 0.00 | 0.00 | 0.00 | 54 | 1013.4 |
| 20260507082943 | 43 | 297 | 2.6 | 7.0 | 0.00 | 0.00 | 0.00 | 54 | 1013.3 |
| 20260507082439 | 43 | 329 | 2.6 | 5.2 | 0.00 | 0.00 | 0.00 | 55 | 1013.2 |
| 20260507081936 | 43 | 329 | 4.3 | 7.8 | 0.00 | 0.00 | 0.00 | 55 | 1013.0 |
| 20260507081432 | 42 | 309 | 1.7 | 4.3 | 0.00 | 0.00 | 0.00 | 55 | 1013.2 |
| 20260507080929 | 42 | 311 | 3.5 | 5.2 | 0.00 | 0.00 | 0.00 | 55 | 1013.2 |
| 20260507080425 | 42 | 36 | 2.6 | 6.1 | 0.00 | 0.00 | 0.00 | 55 | 1013.1 |
| 20260507075920 | 42 | 305 | 0.9 | 6.1 | 0.00 | 0.00 | 0.00 | 56 | 1013.0 |
| 20260507075417 | 42 | 0 | 6.1 | 7.8 | 0.00 | 0.00 | 0.00 | 56 | 1013.0 |
| 20260507074914 | 42 | 346 | 2.6 | 6.1 | 0.00 | 0.00 | 0.00 | 56 | 1012.8 |
| 20260507074411 | 41 | 330 | 1.7 | 5.2 | 0.00 | 0.00 | 0.00 | 56 | 1012.9 |
| 20260507073909 | 41 | 320 | 2.6 | 6.1 | 0.00 | 0.00 | 0.00 | 56 | 1012.8 |
| 20260507073404 | 41 | 343 | 3.5 | 7.0 | 0.00 | 0.00 | 0.00 | 56 | 1013.1 |
| 20260507072902 | 41 | 338 | 2.6 | 5.2 | 0.00 | 0.00 | 0.00 | 56 | 1013.0 |
| 20260507072359 | 41 | 306 | 6.1 | 6.1 | 0.00 | 0.00 | 0.00 | 56 | 1012.8 |
| 20260507071856 | 41 | 34 | 2.6 | 4.3 | 0.00 | 0.00 | 0.00 | 56 | 1012.8 |
| 20260507071353 | 40 | 359 | 7.0 | 7.8 | 0.00 | 0.00 | 0.00 | 56 | 1012.8 |
| 20260507070849 | 40 | 320 | 3.5 | 6.1 | 0.00 | 0.00 | 0.00 | 56 | 1012.9 |
| 20260507070347 | 40 | 20 | 3.5 | 9.6 | 0.00 | 0.00 | 0.00 | 57 | 1012.8 |
| 20260507065844 | 40 | 10 | 4.3 | 7.8 | 0.00 | 0.00 | 0.00 | 57 | 1012.8 |
| 20260507065340 | 40 | 29 | 3.5 | 7.8 | 0.00 | 0.00 | 0.00 | 57 | 1012.6 |
| 20260507064837 | 39 | 322 | 5.2 | 7.8 | 0.00 | 0.00 | 0.00 | 57 | 1012.7 |
| 20260507064336 | 39 | 19 | 4.3 | 9.6 | 0.00 | 0.00 | 0.00 | 57 | 1012.5 |
| 20260507063833 | 39 | 29 | 4.3 | 7.8 | 0.00 | 0.00 | 0.00 | 57 | 1012.4 |
| 20260507063330 | 39 | 352 | 0.9 | 7.0 | 0.00 | 0.00 | 0.00 | 57 | 1012.4 |
| 20260507062827 | 39 | 16 | 2.6 | 6.1 | 0.00 | 0.00 | 0.00 | 57 | 1012.4 |
| 20260507062324 | 39 | 344 | 2.6 | 5.2 | 0.00 | 0.00 | 0.00 | 57 | 1012.3 |
| 20260507061822 | 38 | 26 | 3.5 | 7.0 | 0.00 | 0.00 | 0.00 | 57 | 1012.5 |
| 20260507061320 | 38 | 350 | 2.6 | 5.2 | 0.00 | 0.00 | 0.00 | 57 | 1012.5 |
| 20260507060818 | 38 | 341 | 1.7 | 5.2 | 0.00 | 0.00 | 0.00 | 57 | 1012.4 |
| 20260507060314 | 38 | 338 | 2.6 | 5.2 | 0.00 | 0.00 | 0.00 | 57 | 1012.3 |
| 20260507055811 | 38 | 329 | 4.3 | 6.1 | 0.00 | 0.00 | 0.00 | 57 | 1012.1 |
| 20260507055306 | 37 | 36 | 4.3 | 6.1 | 0.00 | 0.00 | 0.00 | 56 | 1012.2 |
| 20260507054803 | 37 | 326 | 3.5 | 5.2 | 0.00 | 0.00 | 0.00 | 56 | 1012.2 |
| 20260507054259 | 37 | 350 | 2.6 | 6.1 | 0.00 | 0.00 | 0.00 | 56 | 1012.2 |
| 20260507053757 | 37 | 25 | 5.2 | 7.8 | 0.00 | 0.00 | 0.00 | 56 | 1012.0 |
| 20260507053254 | 37 | 93 | 1.7 | 4.3 | 0.00 | 0.00 | 0.00 | 55 | 1011.9 |
| 20260507052753 | 37 | 14 | 2.6 | 6.1 | 0.00 | 0.00 | 0.00 | 55 | 1012.0 |
| 20260507052249 | 37 | 349 | 0.9 | 3.5 | 0.00 | 0.00 | 0.00 | 55 | 1011.9 |
| 20260507051747 | 36 | 0 | 2.6 | 4.3 | 0.00 | 0.00 | 0.00 | 55 | 1011.9 |
| 20260507051244 | 36 | 342 | 0.9 | 3.5 | 0.00 | 0.00 | 0.00 | 54 | 1012.2 |
| 20260507050741 | 36 | 353 | 1.7 | 3.5 | 0.00 | 0.00 | 0.00 | 54 | 1011.8 |
| 20260507050237 | 36 | 319 | 0.9 | 3.5 | 0.00 | 0.00 | 0.00 | 53 | 1012.0 |
| 20260507045734 | 36 | 345 | 0.0 | 1.7 | 0.00 | 0.00 | 0.00 | 53 | 1011.9 |
| 20260507045230 | 36 | 341 | 0.9 | 1.7 | 0.00 | 0.00 | 0.00 | 53 | 1012.0 |
| 20260507044728 | 36 | 131 | 0.9 | 2.6 | 0.00 | 0.00 | 0.00 | 53 | 1011.9 |
| 20260507044224 | 36 | 142 | 1.7 | 2.6 | 0.00 | 0.00 | 0.00 | 53 | 1011.7 |
| 20260507043720 | 36 | 149 | 2.6 | 2.6 | 0.00 | 0.00 | 0.00 | 53 | 1011.8 |
| 20260507043217 | 36 | 164 | 1.7 | 2.6 | 0.00 | 0.00 | 0.00 | 53 | 1011.7 |
| 20260507042714 | 36 | 156 | 0.9 | 2.6 | 0.00 | 0.00 | 0.00 | 53 | 1011.6 |
| 20260507042208 | 36 | 127 | 1.7 | 2.6 | 0.00 | 0.00 | 0.00 | 53 | 1011.6 |
| 20260507041706 | 36 | 155 | 1.7 | 2.6 | 0.00 | 0.00 | 0.00 | 53 | 1011.5 |
| 20260507041203 | 36 | 174 | 0.9 | 1.7 | 0.00 | 0.00 | 0.00 | 53 | 1011.4 |
| 20260507040700 | 37 | 169 | 1.7 | 2.6 | 0.00 | 0.00 | 0.00 | 53 | 1011.5 |
| 20260507040155 | 37 | 116 | 1.7 | 2.6 | 0.00 | 0.00 | 0.00 | 52 | 1011.4 |
| 20260507035652 | 37 | 128 | 1.7 | 2.6 | 0.00 | 0.00 | 0.00 | 52 | 1011.2 |
| 20260507035148 | 37 | 149 | 0.9 | 2.6 | 0.00 | 0.00 | 0.00 | 52 | 1011.3 |
| 20260507034645 | 37 | 153 | 0.9 | 2.6 | 0.00 | 0.00 | 0.00 | 52 | 1011.5 |
| 20260507034142 | 37 | 114 | 0.9 | 2.6 | 0.00 | 0.00 | 0.00 | 52 | 1011.4 |
| 20260507033641 | 37 | 164 | 1.7 | 2.6 | 0.00 | 0.00 | 0.00 | 52 | 1011.3 |
| 20260507033137 | 37 | 95 | 0.9 | 1.7 | 0.00 | 0.00 | 0.00 | 52 | 1011.4 |
| 20260507032635 | 37 | 116 | 0.9 | 2.6 | 0.00 | 0.00 | 0.00 | 52 | 1011.2 |
| 20260507032131 | 37 | 69 | 0.9 | 2.6 | 0.00 | 0.00 | 0.00 | 52 | 1011.2 |
| 20260507031628 | 37 | 137 | 0.9 | 1.7 | 0.00 | 0.00 | 0.00 | 52 | 1011.3 |
| 20260507031124 | 37 | 159 | 1.7 | 2.6 | 0.00 | 0.00 | 0.00 | 52 | 1011.1 |
| 20260507030621 | 37 | 144 | 1.7 | 2.6 | 0.00 | 0.00 | 0.00 | 52 | 1011.0 |
| 20260507030119 | 38 | 209 | 0.0 | 1.7 | 0.00 | 0.00 | 0.00 | 52 | 1011.1 |
| 20260507025616 | 38 | 13 | 0.0 | 0.9 | 0.00 | 0.00 | 0.00 | 52 | 1011.0 |
| 20260507025113 | 38 | 130 | 0.9 | 2.6 | 0.00 | 0.00 | 0.00 | 52 | 1010.9 |
| 20260507024611 | 38 | 135 | 1.7 | 2.6 | 0.00 | 0.00 | 0.00 | 52 | 1011.0 |
| 20260507024108 | 38 | 129 | 0.0 | 2.6 | 0.00 | 0.00 | 0.00 | 52 | 1010.9 |
| 20260507023603 | 38 | 147 | 0.9 | 2.6 | 0.00 | 0.00 | 0.00 | 52 | 1011.0 |
| 20260507023101 | 38 | 157 | 0.9 | 2.6 | 0.00 | 0.00 | 0.00 | 52 | 1010.7 |
| 20260507022557 | 38 | 148 | 0.9 | 2.6 | 0.00 | 0.00 | 0.00 | 52 | 1010.8 |
| 20260507022052 | 39 | 109 | 0.9 | 2.6 | 0.00 | 0.00 | 0.00 | 51 | 1011.0 |
| 20260507021548 | 39 | 128 | 0.9 | 2.6 | 0.00 | 0.00 | 0.00 | 51 | 1010.8 |
| 20260507021045 | 39 | 134 | 0.0 | 1.7 | 0.00 | 0.00 | 0.00 | 51 | 1010.9 |
| 20260507020543 | 39 | 140 | 1.7 | 1.7 | 0.00 | 0.00 | 0.00 | 51 | 1010.7 |
| 20260507020034 | 39 | 127 | 1.7 | 1.7 | 0.00 | 0.00 | 0.00 | 51 | 1010.8 |
| 20260507015532 | 39 | 81 | 0.9 | 1.7 | 0.00 | 0.00 | 0.00 | 51 | 1010.7 |
| 20260507015030 | 39 | 149 | 0.9 | 2.6 | 0.00 | 0.00 | 0.00 | 51 | 1010.6 |
| 20260507014526 | 39 | 129 | 0.9 | 2.6 | 0.00 | 0.00 | 0.00 | 51 | 1010.6 |
| 20260507014021 | 39 | 134 | 1.7 | 2.6 | 0.00 | 0.00 | 0.00 | 51 | 1010.5 |
| 20260507013518 | 39 | 112 | 0.9 | 1.7 | 0.00 | 0.00 | 0.00 | 51 | 1010.8 |
| 20260507013016 | 40 | 149 | 2.6 | 2.6 | 0.00 | 0.00 | 0.00 | 51 | 1010.5 |
| 20260507012513 | 40 | 142 | 1.7 | 2.6 | 0.00 | 0.00 | 0.00 | 50 | 1010.8 |
| 20260507012009 | 40 | 347 | 0.0 | 1.7 | 0.00 | 0.00 | 0.00 | 50 | 1010.5 |
| 20260507011507 | 40 | 141 | 1.7 | 1.7 | 0.00 | 0.00 | 0.00 | 50 | 1010.4 |
| 20260507011002 | 40 | 111 | 1.7 | 2.6 | 0.00 | 0.00 | 0.00 | 50 | 1010.4 |
| 20260507010456 | 40 | 137 | 0.0 | 1.7 | 0.00 | 0.00 | 0.00 | 50 | 1010.3 |
| 20260507005953 | 40 | 100 | 0.9 | 2.6 | 0.00 | 0.00 | 0.00 | 50 | 1010.3 |
| 20260507005451 | 41 | 156 | 1.7 | 2.6 | 0.00 | 0.00 | 0.00 | 50 | 1010.5 |
| 20260507004947 | 41 | 171 | 1.7 | 2.6 | 0.00 | 0.00 | 0.00 | 50 | 1010.5 |
| 20260507004444 | 41 | 132 | 0.9 | 2.6 | 0.00 | 0.00 | 0.00 | 50 | 1010.2 |
| 20260507003942 | 41 | 146 | 1.7 | 2.6 | 0.00 | 0.00 | 0.00 | 50 | 1010.3 |
| 20260507003436 | 41 | 44 | 0.0 | 1.7 | 0.00 | 0.00 | 0.00 | 50 | 1010.4 |
| 20260507002931 | 41 | 152 | 0.9 | 2.6 | 0.00 | 0.00 | 0.00 | 50 | 1010.3 |
| 20260507002428 | 41 | 133 | 1.7 | 2.6 | 0.00 | 0.00 | 0.00 | 50 | 1010.3 |
| 20260507001925 | 41 | 141 | 1.7 | 2.6 | 0.00 | 0.00 | 0.00 | 49 | 1010.3 |
| 20260507001422 | 42 | 163 | 0.0 | 1.7 | 0.00 | 0.00 | 0.00 | 49 | 1010.1 |
| 20260507000920 | 42 | 185 | 0.0 | 1.7 | 0.00 | 0.00 | 0.00 | 49 | 1010.2 |
| 20260507000414 | 42 | 137 | 1.7 | 2.6 | 0.00 | 0.00 | 0.00 | 49 | 1010.1 |
| 20260506235910 | 42 | 123 | 0.9 | 1.7 | 0.00 | 0.00 | 0.00 | 49 | 1010.1 |
| 20260506235408 | 42 | 147 | 0.0 | 1.7 | 0.00 | 0.00 | 0.00 | 49 | 1010.0 |
| 20260506234903 | 42 | 146 | 0.0 | 1.7 | 0.00 | 0.00 | 0.00 | 49 | 1010.0 |
| 20260506234402 | 42 | 132 | 0.9 | 3.5 | 0.00 | 0.00 | 0.00 | 49 | 1010.0 |
| 20260506233859 | 43 | 124 | 0.9 | 1.7 | 0.00 | 0.00 | 0.00 | 49 | 1009.9 |